Location: Newark
(16.3678°N, 77.8722°E)
Time: 18:40:54
(UTC+00:00)

Tiros 1 - Pass Details

Date: 13 December 2019
Orbit: 630 x 664 km, 48.4° (Epoch: 23 January)

Event Time Altitude Azimuth Distance (km) Brightness Sun altitude
Rises 21:19:47 0° 217° (SW) 2,980 - -52.5°
Reaches altitude 10° 21:22:09 10° 215° (SW) 2,066 - -52.0°
Maximum altitude 21:26:54 73° 130° (SE) 684 - -50.9°
Drops below altitude 10° 21:31:38 10° 46° (NE) 2,052 - -49.8°
Sets 21:33:58 0° 44° (NE) 2,958 - -49.3°
